Weather History for Waupaca, WI

Change the Weather History Date:

Monday, March 11, 2013

  Actual Average Record
Temperature  
Mean Temperature 32 °F -  
Max Temperature 35 °F 38 °F 69 °F (2012)
Min Temperature 30 °F 19 °F -1 °F (1984)
Degree Days  
Heating Degree Days 32    
Moisture  
Dew Point 29 °F    
Average Humidity 85    
Maximum Humidity 100    
Minimum Humidity 64    
Precipitation  
Precipitation 0.01 in - - ()
Sea Level Pressure  
Sea Level Pressure 29.61 in    
Wind  
Wind Speed 7 mph (NNW)    
Max Wind Speed 16 mph    
Max Gust Speed 20 mph    
Visibility 8 miles    
Events Snow    
Averages and records for this station are not official NWS values.
T = Trace of Precipitation, MM = Missing Value Source: NWS Daily Summary

Daily Weather History Graph

Daily Weather History Graph

Search for Another Location

Airport:

Trip Planner

Search our weather history database for the weather conditions in past years. The results will help you decide how hot, cold, wet, or windy it might be!

Date:

Astronomy

Mar. 11, 2013 Rise Set
Actual Time 7:15 AM CDT 6:57 PM CDT
Civil Twilight 6:46 AM CDT 7:26 PM CDT
Nautical Twilight 6:12 AM CDT 8:00 PM CDT
Astronomical Twilight 5:38 AM CDT 8:34 PM CDT
Moon 6:47 AM CDT (3/11) 7:11 PM CDT (3/11)
Length of Visible Light 12h 40m
Length of Day
11h 42m
Waning Crescent, 0% of the Moon is Illuminated
Mar 11
Waning Crescent
Mar 11
New
Mar 19
First Quarter
Mar 27
Full
Apr 2
Last Quarter

Hourly Weather History & Observations

Time (CDT) Temp. Windchill Dew Point Humidity Pressure Visibility Wind Dir Wind Speed Gust Speed Precip Events Conditions
12:15 AM 33.8 °F 26.4 °F 32.0 °F 93% 29.69 in 2.5 mi NNE 9.2 mph 17.3 mph N/A Snow Light Snow
12:35 AM 33.8 °F 29.6 °F 32.0 °F 93% 29.68 in 1.8 mi North 4.6 mph - 0.01 in Snow Light Snow
12:55 AM 33.8 °F 27.7 °F 32.0 °F 93% 29.67 in 1.8 mi North 6.9 mph - 0.01 in Snow Light Snow
1:55 AM 32.0 °F 26.4 °F 32.0 °F 100% 29.64 in 5.0 mi NNE 5.8 mph - N/A   Overcast
2:15 AM 32.0 °F 24.2 °F 32.0 °F 100% 29.63 in 5.0 mi NNE 9.2 mph - N/A   Overcast
2:55 AM 32.0 °F 25.6 °F 32.0 °F 100% 29.62 in 10.0 mi North 6.9 mph - N/A   Overcast
3:15 AM 33.8 °F 27.0 °F 32.0 °F 93% 29.61 in 10.0 mi North 8.1 mph - N/A   Overcast
3:35 AM 33.8 °F 28.6 °F 32.0 °F 93% 29.61 in 5.0 mi North 5.8 mph - N/A   Overcast
3:55 AM 33.8 °F 29.6 °F 32.0 °F 93% 29.61 in 5.0 mi North 4.6 mph - N/A   Overcast
4:15 AM 33.8 °F 29.6 °F 32.0 °F 93% 29.61 in 4.0 mi NNW 4.6 mph - N/A   Overcast
4:35 AM 33.8 °F 29.6 °F 32.0 °F 93% 29.60 in 3.0 mi NNW 4.6 mph - N/A   Overcast
4:55 AM 33.8 °F 30.8 °F 32.0 °F 93% 29.60 in 3.0 mi NW 3.5 mph - N/A   Overcast
5:15 AM 33.8 °F 29.6 °F 32.0 °F 93% 29.59 in 5.0 mi NNW 4.6 mph - N/A   Overcast
5:35 AM 33.8 °F 30.8 °F 32.0 °F 93% 29.59 in 5.0 mi North 3.5 mph - N/A   Overcast
5:55 AM 33.8 °F 29.6 °F 32.0 °F 93% 29.59 in 5.0 mi North 4.6 mph - N/A   Overcast
6:15 AM 33.8 °F 29.6 °F 32.0 °F 93% 29.59 in 5.0 mi NNW 4.6 mph - N/A   Overcast
6:35 AM 33.8 °F 28.6 °F 32.0 °F 93% 29.59 in 5.0 mi NNW 5.8 mph - N/A   Overcast
6:55 AM 33.8 °F 29.6 °F 32.0 °F 93% 29.59 in 3.0 mi NNW 4.6 mph - N/A   Overcast
7:15 AM 33.8 °F - 32.0 °F 93% 29.60 in 5.0 mi Calm Calm - N/A   Overcast
7:35 AM 33.8 °F 30.8 °F 32.0 °F 93% 29.62 in 7.0 mi NW 3.5 mph - N/A   Overcast
7:55 AM 33.8 °F - 32.0 °F 93% 29.63 in 10.0 mi Calm Calm - N/A   Overcast
8:15 AM 33.8 °F - 32.0 °F 93% 29.63 in 10.0 mi Calm Calm - N/A   Overcast
8:35 AM 33.8 °F 29.6 °F 32.0 °F 93% 29.63 in 2.0 mi NNW 4.6 mph - N/A   Overcast
8:55 AM 33.8 °F 28.6 °F 32.0 °F 93% 29.62 in 1.5 mi NNW 5.8 mph - N/A   Overcast
9:15 AM 33.8 °F 28.6 °F 32.0 °F 93% 29.61 in 1.8 mi NNW 5.8 mph - N/A   Overcast
9:35 AM 33.8 °F 29.6 °F 32.0 °F 93% 29.60 in 4.0 mi North 4.6 mph - N/A   Overcast
9:55 AM 33.8 °F 27.7 °F 32.0 °F 93% 29.59 in 10.0 mi North 6.9 mph - N/A   Overcast
10:15 AM 33.8 °F 28.6 °F 32.0 °F 93% 29.58 in 10.0 mi North 5.8 mph - N/A   Overcast
10:35 AM 33.8 °F 28.6 °F 32.0 °F 93% 29.58 in 10.0 mi North 5.8 mph - N/A   Overcast
10:55 AM 33.8 °F 26.4 °F 32.0 °F 93% 29.57 in 10.0 mi North 9.2 mph - N/A   Overcast
11:15 AM 33.8 °F 27.0 °F 32.0 °F 93% 29.57 in 10.0 mi North 8.1 mph - N/A   Overcast
11:35 AM 33.8 °F 27.7 °F 32.0 °F 93% 29.56 in 10.0 mi North 6.9 mph - N/A   Overcast
11:55 AM 35.6 °F 32.8 °F 32.0 °F 87% 29.57 in 10.0 mi NNE 3.5 mph - N/A   Overcast
12:15 PM 35.6 °F 30.7 °F 30.2 °F 81% 29.57 in 10.0 mi NNE 5.8 mph - N/A   Overcast
12:35 PM 35.6 °F 29.9 °F 30.2 °F 81% 29.57 in 10.0 mi North 6.9 mph - N/A   Overcast
12:55 PM 35.6 °F 30.7 °F 30.2 °F 81% 29.56 in 10.0 mi North 5.8 mph - N/A   Overcast
1:15 PM 35.6 °F 30.7 °F 32.0 °F 87% 29.56 in 10.0 mi North 5.8 mph - N/A   Overcast
1:35 PM 35.6 °F 30.7 °F 30.2 °F 81% 29.55 in 10.0 mi North 5.8 mph - N/A   Overcast
1:55 PM 35.6 °F 30.7 °F 30.2 °F 81% 29.55 in 10.0 mi NNW 5.8 mph - N/A   Overcast
2:15 PM 35.6 °F 29.9 °F 30.2 °F 81% 29.55 in 10.0 mi NW 6.9 mph - N/A   Overcast
2:35 PM 35.6 °F 31.7 °F 30.2 °F 81% 29.54 in 10.0 mi NW 4.6 mph - N/A   Overcast
2:55 PM 35.6 °F 29.2 °F 32.0 °F 87% 29.54 in 10.0 mi NW 8.1 mph - N/A   Overcast
3:15 PM 35.6 °F 29.9 °F 30.2 °F 81% 29.54 in 10.0 mi NW 6.9 mph - N/A   Overcast
3:35 PM 35.6 °F 29.2 °F 30.2 °F 81% 29.54 in 10.0 mi NW 8.1 mph - N/A   Overcast
3:55 PM 35.6 °F 29.9 °F 30.2 °F 81% 29.54 in 10.0 mi NW 6.9 mph - N/A   Overcast
4:15 PM 35.6 °F 27.1 °F 28.4 °F 75% 29.54 in 10.0 mi NW 12.7 mph 16.1 mph N/A   Overcast
4:35 PM 35.6 °F 27.5 °F 28.4 °F 75% 29.55 in 10.0 mi NW 11.5 mph - N/A   Overcast
4:55 PM 35.6 °F 28.0 °F 28.4 °F 75% 29.55 in 10.0 mi NW 10.4 mph - N/A   Overcast
5:15 PM 33.8 °F 24.8 °F 28.4 °F 81% 29.56 in 10.0 mi NW 12.7 mph 17.3 mph N/A   Overcast
5:35 PM 33.8 °F 24.3 °F 28.4 °F 81% 29.56 in 10.0 mi NW 13.8 mph 19.6 mph N/A   Overcast
5:55 PM 33.8 °F 24.8 °F 26.6 °F 75% 29.56 in 10.0 mi NW 12.7 mph 17.3 mph N/A   Overcast
6:15 PM 33.8 °F 26.4 °F 26.6 °F 75% 29.57 in 10.0 mi NW 9.2 mph - N/A   Overcast
6:35 PM 32.0 °F 23.0 °F 26.6 °F 80% 29.58 in 10.0 mi NW 11.5 mph 16.1 mph N/A   Overcast
6:55 PM 32.0 °F 24.2 °F 26.6 °F 80% 29.60 in 10.0 mi NW 9.2 mph - N/A   Overcast
7:15 PM 32.0 °F 24.8 °F 24.8 °F 75% 29.61 in 10.0 mi NW 8.1 mph 16.1 mph N/A   Overcast
7:35 PM 32.0 °F 24.8 °F 24.8 °F 75% 29.62 in 10.0 mi NW 8.1 mph - N/A   Overcast
7:55 PM 32.0 °F 22.1 °F 26.6 °F 80% 29.63 in 10.0 mi NW 13.8 mph 17.3 mph N/A   Overcast
8:15 PM 32.0 °F 24.2 °F 26.6 °F 80% 29.64 in 10.0 mi NW 9.2 mph - N/A   Overcast
8:35 PM 32.0 °F 23.0 °F 24.8 °F 75% 29.66 in 10.0 mi NW 11.5 mph 18.4 mph N/A   Overcast
8:55 PM 32.0 °F 22.5 °F 23.0 °F 69% 29.66 in 10.0 mi NW 12.7 mph 19.6 mph N/A   Overcast
9:15 PM 32.0 °F 23.6 °F 24.8 °F 75% 29.67 in 10.0 mi WNW 10.4 mph - N/A   Overcast
9:35 PM 32.0 °F 21.2 °F 23.0 °F 69% 29.68 in 7.0 mi NW 16.1 mph 19.6 mph N/A Snow Light Snow
9:55 PM 30.2 °F 20.8 °F 23.0 °F 75% 29.69 in 2.5 mi NW 11.5 mph 18.4 mph N/A Snow Light Snow
10:15 PM 30.2 °F 22.6 °F 24.8 °F 80% 29.70 in 2.5 mi NW 8.1 mph - N/A Snow Light Snow
10:35 PM 30.2 °F 21.3 °F 24.8 °F 80% 29.71 in 3.0 mi NW 10.4 mph 16.1 mph N/A Snow Light Snow
10:55 PM 30.2 °F 21.3 °F 21.2 °F 69% 29.71 in 10.0 mi WNW 10.4 mph 17.3 mph N/A   Overcast
11:15 PM 30.2 °F 20.8 °F 21.2 °F 69% 29.71 in 10.0 mi NW 11.5 mph - N/A   Overcast
11:35 PM 30.2 °F 20.8 °F 19.4 °F 64% 29.71 in 10.0 mi NW 11.5 mph 17.3 mph N/A   Overcast
11:55 PM 30.2 °F 20.8 °F 21.2 °F 69% 29.72 in 10.0 mi WNW 11.5 mph - N/A   Overcast